FENGYUN 1C DEB

Satellite information

Favourite Embed

Satellite Type and Status

DEBRISIN ORBIT

Key statistics

Satellite FENGYUN 1C DEB at a glance.

Uptime

9608

Days in orbit

Revolutions

≈ 14.0

Per day

Orbit

SSO

Sun Synchronous Orbit

Inclination

98.7

Latest

Satellite identification and parameters

Extended collection of information and parameters for FENGYUN 1C DEB.

Object identification

Identified? True

Debris? True

Object name: FENGYUN 1C DEB

International designator: 1999-025CSK

Object number (NORAD): 32141

Object ID (CCSDS): 32141

Country: PEOPLES REPUBLIC OF CHINA (PRC)

Current information (Y/N): Y

RCS size: SMALL

Orbital parameters

Period: 102.617 minutes

Inclination: 98.743 deg

SMA: 7260.596 km

Apoapsis: 936.899 km

Periapsis: 828.024 km

RAAN: 246.273 deg

Eccentricy: 0.00749769

Argument of periapsis: 146.5357 deg

Mean anomaly: 214.058 deg

Mean motion: 14.03279915 rev/day

Mean motion (dot): 0.00000453 rev/day2

B* drag term: 0.00030923316 1/REarth

Two-line elements (TLE)

Creation date: Aug. 28, 2025, 2:53 a.m.

Reference frame: TEME

Reference center: EARTH

Epoch: Aug. 27, 2025, 6:19 p.m. UTC

TLE line 0: 0 FENGYUN 1C DEB

TLE line 1: 1 32141U 99025CSK 25239.76355036 .00000453 00000-0 30923-3 0 9994

TLE line 2: 2 32141 98.7430 246.2730 0074977 146.5357 214.0580 14.03279915934437

Live tracking on map

Real-time ground track for satellite FENGYUN 1C DEB.

In-orbit conjunctions

A list of the most updated potential collisions computed for object FENGYUN 1C DEB.

Target Orbit TCA Probability of collision Miss distance Type
EXPLORER 20 LEO 2024-12-01 00:38:23 0.0002640965 395.0 (m) PAYLOAD
DMSP 5D-2 F13 DEB SSO 2024-11-06 01:28:53 0.0001017046 126.0 (m) DEBRIS

Associated space launch

Chinese polar orbiting meteorological satellite

FENGYUN 1C DEB was lifted into orbit during the mission ‘Long March 4B | Feng Yun 1C’, on board a Long March 4B space rocket.

The launch took place on May 10, 1999, 1:33 a.m. from Launch Complex 7.

For more information about the launch, click the button.

Launch to space Long March 4B | Feng Yun 1C
Long March 4B | Feng Yun 1C

Agency: N/A

Status: Launch Successful

Launch date: May 10, 1999, 1:33 a.m. UTC

Rocket: Long March 4B

Launch pad: Launch Complex 7

Location: Taiyuan Satellite Launch Center, People's Republic of China

...

Latest news about this satellite

There are no fresh news available about this satellite. Check back as we update our databases every day.


Newsletter sign-up

Weekly statistics, charts and insights to help you stay on top of the space industry.